Weather observations for the past three days for
Marshall
Imperial (Metric)
Date Time (akdt) Wind (mph) Vis. (mi.) Weather Sky Cond. Temperature (ºF) Relative Humidity Wind Chill (°F) Heat Index (°F) Pressure Precipitation (in)
Air Dwpt 6 hour altimeter (in) sea level (mb) 1 hr 3 hr 6 hr
Max. Min.
15 15:56 SW 7 6.00 Fog/Mist BKN008 OVC018 46.9 45 46.9 45 93% 44 29.75 1007.9 0.01 0.03
15 14:56 SW 9 4.00 Fog/Mist OVC006 46 45 96% 42 29.74 1007.4 0.01
15 13:56 SW 10 7.00 Overcast BKN009 BKN013 OVC022 46.9 45 93% 43 29.72 1006.9
15 12:56 SW 10 10.00 Overcast OVC007 46 45 96% 42 29.71 1006.6 0.01
15 11:56 SW 8 5.00 Fog/Mist BKN007 OVC010 45 44.1 97% 41 29.7 1006.4
15 10:56 SW 8 2.50 Fog/Mist OVC005 45 44.1 97% 41 29.7 1006.1 0.01
15 09:56 SW 14 G 20 7.00 Overcast OVC007 45 43 45 44.1 93% 39 29.68 1005.6 0.13
15 08:56 SW 12 9.00 Overcast OVC007 45 44.1 97% 40 29.66 1004.9 0.01
15 07:56 SW 12 4.00 Light Rain Fog/Mist BKN007 OVC014 44.1 43 96% 39 29.65 1004.4 0.02
15 06:56 SW 10 9.00 Light Rain OVC007 45 44.1 97% 40 29.63 1003.8 0.05 0.1
15 05:56 SW 10 10.00 Light Rain OVC005 45 44.1 97% 40 29.62 1003.5 0.02
15 04:56 SW 12 4.00 Light Rain Fog/Mist OVC005 45 44.1 97% 40 29.6 1002.9 0.03
15 03:56 SW 12 2.50 Light Rain Fog/Mist OVC005 45 45 46 45 100% 40 29.58 1002.1 0.01 0.09
15 02:56 SW 13 7.00 Light Rain OVC005 45 44.1 97% 39 29.58 1002.1 0.01
15 01:56 SW 9 3.00 Light Rain Fog/Mist OVC005 45 45 100% 41 29.57 1001.8 0.01
15 00:56 SW 12 3.00 Light Rain Fog/Mist OVC005 46 45 96% 41 29.55 1001.3 0.02 0.06
14 23:56 SW 12 10.00 Light Rain OVC005 46 45 96% 41 29.53 1000.6 0.03
14 22:56 SW 13 7.00 Light Rain OVC005 46 45 96% 41 29.52 1000.0 0.01
14 21:56 SW 13 G 21 2.00 Light Rain Fog/Mist OVC005 46 45 46 46 96% 41 29.5 999.6 0.03 0.14
14 20:56 SW 17 G 23 4.00 Fog/Mist OVC005 46 45 96% 40 29.49 999.2
14 19:56 SW 16 G 22 2.50 Fog/Mist OVC005 46 45 96% 40 29.48 998.9
14 18:56 SW 16 G 21 5.00 Fog/Mist OVC005 46 45 96% 40 29.47 998.4 0.03 0.11
14 17:56 SW 16 2.00 Light Rain Fog/Mist OVC005 46 45 96% 40 29.46 998.0 0.03
14 16:56 SW 16 G 22 8.00 Light Rain BKN007 OVC012 46 44.1 93% 40 29.46 998.0 0.05
14 15:56 SW 14 10.00 Light Rain OVC007 46 44.1 46 45 93% 40 29.45 997.8 0.12 0.39
14 14:56 S 16 G 20 7.00 Light Rain BKN007 OVC011 45 44.1 97% 38 29.44 997.4 0.17
14 13:56 SW 13 8.00 Light Rain BKN005 OVC009 45 44.1 97% 39 29.43 997.0 0.1
14 12:56 SW 14 2.00 Light Rain Fog/Mist OVC005 45 45 100% 39 29.41 996.3
14 11:56 SW 16 2.50 Fog/Mist OVC005 46 45 96% 40 29.39 995.7
14 10:56 W 15 G 22 3.00 Fog/Mist OVC005 46 45 96% 40 29.37 995.1
14 09:56 W 16 2.00 Light Rain Fog/Mist OVC005 46 45 46.9 45 96% 40 29.36 994.7 0.01 0.24
14 08:56 W 12 G 21 2.00 Light Rain Fog/Mist OVC005 46 45 96% 41 29.35 994.3 0.01
14 00:56 NW 8 10.00 Light Rain BKN007 OVC041 48 46.9 96% 45 29.4 996.0 0.04 0.16
13 23:56 NW 10 10.00 Light Rain OVC037 48 46.9 96% 44 29.38 995.5 0.02
13 22:56 NW 5 10.00 Light Rain BKN009 OVC013 48.9 46.9 93% 48 29.42 996.9 0.1
13 21:56 W 5 10.00 Light Rain BKN015 BKN030 OVC070 48.9 46 51.1 48.9 90% 48 29.44 997.4 0.11
13 20:56 NW 8 10.00 Overcast OVC070 48.9 46.9 93% 46 29.45 997.8
13 18:56 Calm 10.00 Light Rain BKN049 OVC060 50 45 83% 29.47 998.6 0.03 0.1
13 17:56 SW 3 10.00 Light Rain FEW016 SCT027 OVC038 48.9 46 90% 29.49 999.1 0.07
13 16:56 NW 6 10.00 Overcast FEW011 BKN027 OVC036 50 46.9 89% 48 29.47 998.5
13 15:56 N 7 10.00 Light Rain BKN012 OVC019 50 46.9 50 46.9 89% 48 29.51 999.7 0.01 0.04
13 14:56 Calm 10.00 Light Rain SCT009 OVC018 48.9 46 90% 29.5 999.5 0.01
13 13:56 SW 3 10.00 Light Rain BKN014 BKN021 OVC035 48 45 89% 29.54 1000.9 0.02
13 12:56 Calm 8.00 Overcast FEW010 OVC021 48 45 89% 29.55 1001.3
13 11:56 W 6 6.00 Fog/Mist SCT009 OVC026 48 45 89% 46 29.56 1001.6
13 10:56 S 5 10.00 Overcast SCT012 BKN018 OVC030 48 44.1 86% 47 29.55 1001.1
13 09:56 SW 6 10.00 Overcast SCT009 BKN014 OVC024 48 44.1 48 45 86% 46 29.57 1001.8
13 08:56 Calm 10.00 Overcast OVC005 46 45 96% 29.57 1001.9
13 07:56 S 5 10.00 Overcast OVC005 45 44.1 97% 43 29.57 1001.9
13 06:56 SW 5 10.00 Overcast FEW010 OVC015 45 44.1 97% 43 29.57 1001.7
13 05:56 SW 8 10.00 Overcast SCT008 BKN015 OVC055 45 43 93% 41 29.56 1001.5
13 04:56 SW 12 10.00 Overcast OVC008 46.9 45 93% 42 29.55 1001.1
13 03:56 SW 13 G 26 6.00 Fog/Mist OVC006 46.9 46 51.1 46.9 97% 42 29.51 999.6 0.06
13 02:56 SW 12 G 18 10.00 Light Rain OVC006 48.9 46.9 93% 45 29.5 999.6
13 01:56 S 14 10.00 Overcast BKN008 OVC012 50 48 93% 45 29.48 998.7 0.01
13 00:56 S 17 10.00 Overcast OVC010 50 48 93% 45 29.43 997.0 0.01 0.05
12 23:56 S 22 G 30 10.00 Overcast and Breezy OVC010 50 48.9 96% 44 29.42 996.9 0.02
12 22:56 S 23 G 33 10.00 Light Rain and Breezy OVC010 51.1 48.9 92% 29.37 995.1 0.02
12 21:56 S 16 G 26 10.00 Light Rain BKN010 BKN015 OVC032 51.1 48.9 55.9 51.1 92% 29.39 995.7 0.01 0.07
12 20:56 S 23 G 31 10.00 Overcast and Breezy BKN015 BKN022 OVC055 52 48 86% 29.38 995.3 0.01
12 19:56 S 23 G 30 10.00 Overcast and Breezy SCT014 BKN043 OVC065 53.1 50 89% 29.37 995.2 0.04
12 18:56 SE 18 G 24 10.00 Light Rain FEW016 BKN023 OVC070 54 51.1 90% 29.38 995.4 0.01 0.01
12 17:56 SE 17 G 26 10.00 Overcast SCT055 OVC070 55.9 50 81% 29.4 995.9
12 16:56 SE 21 10.00 Light Rain and Breezy FEW030 BKN048 OVC060 55 48.9 80% 29.41 996.6
Date Time (akdt) Wind (mph) Vis. (mi.) Weather Sky Cond. Air Dwpt Max. Min. Relative Humidity Wind Chill (°F) Heat Index (°F) altimeter (in) sea level (mb) 1 hr 3 hr 6 hr
6 hour
Temperature (ºF) Pressure Precipitation (in)